Погода в Великом Обзыре

Украина / Волынская область     51°27′11″N   25°12′47″E
темп.,
°C
ветер,
м/с
пор.,
м/с
влажн.,
%
обл.,
%
осадки,
мм/ч
давл.,
гПа
погр.,
м
9 мая, вс
вс900:00+2з23935 0.0 102059
03:00+2з26960 0.0 1022129
06:00+1з24963 0.0 102373
09:00+8з236786 0.0 1024422
12:00+13зюз234111 0.0 10231709
15:00+15юз34368 0.0 10232059
18:00+15ююз344126 0.0 10221916
21:00+10ююв34685 0.0 102357
10 мая, пн
пн1000:00+8ююв311735 0.0 1024210
03:00+6ююв310755 0.0 1024212
06:00+6ююв398263 0.0 1024164
09:00+13ююв5105362 0.0 1024439
12:00+18ююв684248 0.0 10231233
15:00+20ююв68415 0.0 10221431
18:00+19юв574876 0.0 10221262
21:00+14юв4126796 0.0 1022445
11 мая, вт
вт1100:00+12юв4137314 0.0 1023400
03:00+10юв413785 0.0 1023344
06:00+9юв413770 0.0 1023358
09:00+13юв611570 0.0 1022592
12:00+18юв68420 0.0 10211146
15:00+20юв68330 0.0 10201305
18:00+19вюв58380 0.0 10181269
21:00+13вюв38730 0.0 1018172
12 мая, ср
ср1200:00+13вюв414733 0.0 1018531
03:00+11вюв412885 0.0 1017388
06:00+10вюв412945 0.0 1017478
09:00+13вюв596595 0.0 1016735
12:00+17вюв574311 0.0 10141366
15:00+16в5650100 0.0 10131430
18:00+15вюв4756100 0.0 10121346
21:00+11в3773100 0.0 1011277
13 мая, чт
чт1300:00+9в288544 0.0 1011229
03:00+7в410947 0.0 1010326
06:00+5в4109839 0.0 1008325
09:00+8вюв4982100 0.1 1008656
12:00+8в4992100 2.2 1007724
15:00+8в41097100 4.4 1005557
18:00+9вюв3998100 5.0 1004431
21:00+10юв3997100 5.9 1004513